This demonstration page uses our WeatherBlox Daily Observations layout. Learn more.

36.17497, -115.13722

Hourly Observations for June 8, 2020

Temp ( °F °C ) Dew Point ( °F °C ) Humidity (%) Winds ( mph kmh ) Pressure ( in mb ) Visibility ( mi km ) Precip ( " mm )
12:53 am 00:53 Clear 68 20 11 -11.7 11 11 NW 30 48 29.82 1010 10 16.0934 0 0
1:53 am 01:53 Clear 66 18.9 12 -11.1 12 12 NW 32 52 29.84 1011 10 16.0934 0 0
2:53 am 02:53 Clear 65 18.3 11 -11.7 12 12 NW 25 41 29.87 1012 10 16.0934 0 0
3:53 am 03:53 Clear 63 17.2 12 -11.1 13 13 NW 18 30 29.9 1012 10 16.0934 0 0
4:53 am 04:53 Clear 62 16.7 15 -9.4 16 16 NW 24 39 29.94 1014 10 16.0934 0 0
5:53 am 05:53 Sunny 62 16.7 15 -9.4 16 16 NW 23 37 29.98 1015 10 16.0934 0 0
6:53 am 06:53 Sunny 62 16.7 17 -8.3 17 17 NNW 21 33 30.02 1017 10 16.0934 0 0
7:53 am 07:53 Sunny 64 17.8 17 -8.3 16 16 NW 30 48 30.03 1017 10 16.0934 0 0
8:53 am 08:53 Sunny 66 18.9 17 -8.3 15 15 NW 28 44 30.06 1018 10 16.0934 0 0
9:53 am 09:53 Sunny 67 19.4 17 -8.3 15 15 NW 21 33 30.09 1019 10 16.0934 0 0
10:53 am 10:53 Sunny 69 20.6 14 -10 12 12 NNW 8 13 30.11 1020 10 16.0934 0 0
11:53 am 11:53 Sunny 73 22.8 13 -10.6 10 10 NNW 12 19 30.09 1019 10 16.0934 0 0
12:41 pm 12:41 Sunny 74 23.3 13 -10.6 9 9 ENE 10 17 29.99 1015 10 16.0934 0 0
12:53 pm 12:53 Sunny 74 23.3 14 -10 10 10 undefined N/A 30.09 1019 10 16.0934 0 0
1:53 pm 13:53 Sunny 77 25 12 -11.1 8 8 N 15 24 30.06 1018 10 16.0934 0 0
2:53 pm 14:53 Sunny 78 25.6 12 -11.1 8 8 ESE 9 15 30.06 1018 10 16.0934 0 0
3:53 pm 15:53 Sunny 78 25.6 12 -11.1 8 8 ESE 14 22 30.05 1018 10 16.0934 0 0
4:53 pm 16:53 Sunny 79 26.1 11 -11.7 7 7 undefined N/A 30.05 1018 10 16.0934 0 0
5:53 pm 17:53 Sunny 79 26.1 10 -12.2 7 7 undefined N/A 30.04 1017 10 16.0934 0 0
6:53 pm 18:53 Sunny 79 26.1 10 -12.2 7 7 SE 3 6 30.05 1018 10 16.0934 0 0
7:53 pm 19:53 Sunny 77 25 10 -12.2 8 8 ESE 8 13 30.06 1018 10 16.0934 0 0
8:53 pm 20:53 Clear 76 24.4 12 -11.1 9 9 ESE 6 9 30.08 1019 10 16.0934 0 0
9:53 pm 21:53 Clear 76 24.4 14 -10 9 9 WSW 3 6 30.1 1019 10 16.0934 0 0
10:53 pm 22:53 Clear 71 21.7 18 -7.8 13 13 WNW 6 9 30.11 1020 10 16.0934 0 0
11:53 pm 23:53 Clear 69 20.6 19 -7.2 15 15 NNW 7 11 30.12 1020 10 16.0934 0 0

Powered by AerisWeather